Bartlesville, OK

1:36 PM CDT on October 22, 2017 (GMT -0500)
Bartlesville Municipal

Weather History for KBVO - December, 2013

Change the Weather History Date:

Saturday, December 14, 2013

  Actual Average Record
Temperature  
Mean Temperature 28 °F -  
Max Temperature 37 °F 48 °F 80 °F (1948)
Min Temperature 19 °F 27 °F 1 °F (1985)
Degree Days  
Heating Degree Days 37    
Moisture  
Dew Point 29 °F    
Average Humidity 87    
Maximum Humidity 100    
Minimum Humidity 60    
Precipitation  
Precipitation 0.00 in - - ()
Sea Level Pressure  
Sea Level Pressure 30.10 in    
Wind  
Wind Speed 2 mph (NNW)    
Max Wind Speed 9 mph    
Max Gust Speed 23 mph    
Visibility 4 miles    
Events Fog    
Averages and records for this station are not official NWS values.
T = Trace of Precipitation, MM = Missing Value Source: NWS Daily Summary

Daily Weather History Graph

Daily Weather History Graph

Search for Another Location

Airport or City:

Trip Planner

Search our weather history database for the weather conditions in past years. The results will help you decide how hot, cold, wet, or windy it might be!

Date:

Astronomy

Dec. 14, 2013 Rise Set
Actual Time 7:28 AM CST 5:08 PM CST
Civil Twilight 6:59 AM CST 5:37 PM CST
Nautical Twilight 6:27 AM CST 6:10 PM CST
Astronomical Twilight 5:56 AM CST 6:41 PM CST
Moon 3:29 PM CST (12/14) 4:53 AM CST (12/14)
Length of Visible Light 10h 37m
Length of Day
9h 39m
Waxing Gibbous, 94% of the Moon is Illuminated
Dec 14
Waxing Gibbous
Dec 17
Full
Dec 25
Last Quarter
Jan 1
New
Jan 7
First Quarter

Hourly Weather History & Observations

Time (CST) Temp. Windchill Dew Point Humidity Pressure Visibility Wind Dir Wind Speed Gust Speed Precip Events Conditions
12:24 AM 37.4 °F - 37.4 °F 100% 29.88 in 0.5 mi Calm Calm - N/A Fog Fog
12:31 AM 37.4 °F - 37.4 °F 100% 29.88 in 0.8 mi Calm Calm - N/A   Overcast
12:38 AM 37.4 °F - 37.4 °F 100% 29.88 in 1.0 mi Calm Calm - N/A   Overcast
12:43 AM 37.4 °F - 37.4 °F 100% 29.88 in 1.0 mi Calm Calm - N/A   Overcast
12:53 AM 37.0 °F - 37.0 °F 100% 29.88 in 1.2 mi Calm Calm - N/A   Overcast
1:10 AM 37.4 °F - 37.4 °F 100% 29.87 in 1.2 mi Calm Calm - N/A   Overcast
1:53 AM 37.9 °F - 37.9 °F 100% 29.90 in 1.8 mi Calm Calm - N/A   Overcast
2:16 AM 37.4 °F - 37.4 °F 100% 29.91 in 2.0 mi Calm Calm - N/A   Overcast
2:31 AM 37.4 °F - 37.4 °F 100% 29.92 in 1.8 mi Calm Calm - N/A   Overcast
2:42 AM 37.4 °F 34.9 °F 37.4 °F 100% 29.92 in 2.0 mi NNW 3.5 mph - N/A   Overcast
2:50 AM 37.4 °F 34.9 °F 37.4 °F 100% 29.93 in 2.5 mi Variable 3.5 mph - N/A   Overcast
2:53 AM 37.9 °F 34.4 °F 37.9 °F 100% 29.93 in 3.0 mi Variable 4.6 mph - N/A   Overcast
3:53 AM 37.9 °F 32.1 °F 36.0 °F 93% 29.95 in 8.0 mi NNW 8.1 mph - N/A   Overcast
4:53 AM 36.0 °F 29.0 °F 33.1 °F 89% 29.98 in 5.0 mi North 9.2 mph - N/A   Overcast
5:53 AM 34.0 °F 26.6 °F 30.9 °F 89% 30.01 in 4.0 mi North 9.2 mph 23.0 mph N/A   Overcast
6:53 AM 33.1 °F 28.7 °F 28.9 °F 85% 30.08 in 4.0 mi Variable 4.6 mph - N/A   Overcast
7:53 AM 30.9 °F 25.2 °F 27.0 °F 85% 30.12 in 3.0 mi Variable 5.8 mph - N/A   Overcast
8:02 AM 30.2 °F 24.3 °F 26.6 °F 86% 30.12 in 2.5 mi NW 5.8 mph - N/A   Overcast
8:28 AM 30.2 °F 24.3 °F 26.6 °F 86% 30.13 in 3.0 mi Variable 5.8 mph 20.7 mph N/A   Haze
8:53 AM 30.9 °F 23.5 °F 26.1 °F 82% 30.15 in 3.0 mi NNW 8.1 mph - N/A   Haze
9:53 AM 30.9 °F 25.2 °F 26.1 °F 82% 30.18 in 3.0 mi Variable 5.8 mph 20.7 mph N/A   Haze
10:53 AM 32.0 °F 25.6 °F 26.1 °F 79% 30.20 in 4.0 mi Variable 6.9 mph - N/A   Haze
11:36 AM 33.8 °F 27.0 °F 26.6 °F 75% 30.19 in 5.0 mi NNW 8.1 mph 20.7 mph N/A   Haze
11:53 AM 35.1 °F 30.1 °F 27.0 °F 72% 30.19 in 5.0 mi Variable 5.8 mph - N/A   Haze
12:42 PM 35.6 °F 29.2 °F 26.6 °F 70% 30.20 in 5.0 mi NW 8.1 mph 16.1 mph N/A   Haze
12:53 PM 36.0 °F 29.6 °F 27.0 °F 70% 30.20 in 5.0 mi NNW 8.1 mph - N/A   Haze
1:53 PM 36.0 °F 32.1 °F 25.0 °F 64% 30.21 in 6.0 mi Variable 4.6 mph - N/A   Haze
2:35 PM 37.4 °F 34.9 °F 24.8 °F 60% 30.22 in 6.0 mi Variable 3.5 mph - N/A   Haze
2:53 PM 37.0 °F 31.6 °F 26.1 °F 65% 30.22 in 7.0 mi Variable 6.9 mph - N/A   Partly Cloudy
3:53 PM 36.0 °F 33.3 °F 25.0 °F 64% 30.24 in 6.0 mi Variable 3.5 mph - N/A   Haze
4:53 PM 33.1 °F - 23.0 °F 66% 30.26 in 6.0 mi Calm Calm - N/A   Haze
5:53 PM 26.1 °F - 23.0 °F 88% 30.27 in 6.0 mi Calm Calm - N/A   Clear
6:53 PM 24.1 °F - 21.9 °F 91% 30.27 in 5.0 mi Calm Calm - N/A   Clear
7:53 PM 23.0 °F - 21.0 °F 92% 30.29 in 5.0 mi Calm Calm - N/A   Clear
8:53 PM 21.9 °F - 19.9 °F 92% 30.28 in 4.0 mi Calm Calm - N/A   Clear
9:53 PM 21.0 °F - 19.0 °F 92% 30.30 in 4.0 mi Calm Calm - N/A   Clear
10:53 PM 19.9 °F - 18.0 °F 92% 30.31 in 4.0 mi Calm Calm - N/A   Clear
11:53 PM 19.0 °F - 17.1 °F 92% 30.29 in 4.0 mi Calm Calm - N/A   Clear